Home   Weather   Nannestad   Past weeks

Flag for Norway Past Weather in Nannestad, Norway — Yesterday and Last 2 Weeks

Now
27 °F

Sunny.


Feels Like: 27 °F
Forecast: 31 / 40 °F
Wind: 2 mph from North

Location: Oslo Gardermoen Airport

Current Time: Apr 27, 2017 at 7:41:19 am

Latest Report: Apr 27, 2017 at 6:50 am


Visibility: 10 mi

Pressure: 29.71 "Hg

Humidity: 80%

Dew Point: 21 °F

Location of NannestadLocation

Past Weather in Nannestad — Graph

°F

Nannestad Temperature Yesterday

Maximum temperature yesterday: 45 °F (at 3:20 pm)
Minimum temperature yesterday: 32 °F (at 2:20 am)
Average temperature yesterday: 38 °F

High & Low Weather Summary for the Past Weeks

 TemperatureHumidityPressure
High52 °F (Apr 20, 6:20 pm)100% (Apr 12, 7:20 am)30.51 "Hg (Apr 12, 7:20 am)
Low21 °F (Apr 15, 4:50 am)18% (Apr 22, 3:20 pm)29.24 "Hg (Apr 24, 4:50 pm)
Average36 °F63%29.81 "Hg
* Reported Apr 12 5:20 am — Apr 27 5:50 am, Nannestad, Weather by CustomWeather, © 2017

Note: Actual official high and low records may vary slightly from our data, if they occured in-between our weather recording intervals... More about our weather records

Advertising

Nannestad Weather History for the Previous 24 Hours

Scroll right to see more
 ConditionsComfort  
Time TempWeatherWind HumidityBarometerVisibility
5:50 am
Thu, Apr 27
23 °FSunny.3 mph93%29.71 "Hg10 mi
5:20 am23 °FClear.3 mph86%29.71 "Hg10 mi
4:50 am23 °FClear.3 mph80%29.71 "Hg10 mi
4:20 am27 °FClear.2 mph74%29.71 "Hg10 mi
3:20 am27 °FClear.No wind80%29.71 "Hg10 mi
2:50 am27 °FClear.2 mph80%29.71 "Hg10 mi
2:20 am28 °FClear.2 mph74%29.71 "Hg10 mi
1:50 am28 °FClear.No wind74%29.71 "Hg10 mi
1:20 am30 °FClear.No wind69%29.74 "Hg10 mi
12:50 am30 °FClear.3 mph69%29.74 "Hg10 mi
12:20 am30 °FClear.5 mph69%29.74 "Hg10 mi
11:50 pm
Wed, Apr 26
32 °FPassing clouds.3 mph64%29.74 "HgN/A
11:20 pm32 °FClear.3 mph60%29.74 "Hg10 mi
10:50 pm34 °FPassing clouds.3 mph60%29.74 "HgN/A
9:50 pm37 °FScattered showers. Passing clouds.5 mph52%29.74 "HgN/A
9:20 pm37 °FScattered showers. Clear.3 mph52%29.74 "HgN/A
8:50 pm39 °FSunny.3 mph45%29.74 "Hg10 mi
7:50 pm41 °FScattered showers. Passing clouds.5 mph42%29.71 "HgN/A
7:20 pm43 °FScattered showers. Scattered clouds.6 mph39%29.71 "HgN/A
6:50 pm43 °FScattered clouds.9 mph39%29.71 "HgN/A
6:20 pm45 °FScattered showers. Scattered clouds.6 mph29%29.71 "HgN/A
5:50 pm43 °FScattered showers. Scattered clouds.7 mph36%29.71 "HgN/A
5:20 pm43 °FScattered clouds.7 mph34%29.71 "HgN/A
4:50 pm45 °FScattered clouds.7 mph31%29.71 "HgN/A
4:20 pm43 °FScattered clouds.5 mph34%29.71 "HgN/A
3:50 pm45 °FScattered clouds.6 mph31%29.71 "HgN/A
3:20 pm45 °FScattered clouds.5 mph29%29.71 "HgN/A
2:50 pm43 °FPassing clouds.10 mph31%29.71 "HgN/A
2:20 pm43 °FPassing clouds.12 mph34%29.71 "HgN/A
1:50 pm43 °FPassing clouds.8 mph34%29.71 "HgN/A
1:20 pm43 °FPassing clouds.12 mph34%29.71 "HgN/A
12:50 pm43 °FPassing clouds.9 mph31%29.71 "HgN/A
12:20 pm41 °FPassing clouds.13 mph36%29.71 "HgN/A
11:50 am41 °FPassing clouds.12 mph36%29.71 "HgN/A
11:20 am41 °FPassing clouds.12 mph39%29.71 "HgN/A
10:50 am39 °FPassing clouds.12 mph42%29.71 "HgN/A
10:20 am39 °FPassing clouds.15 mph36%29.71 "HgN/A
9:50 am37 °FPassing clouds.13 mph41%29.71 "HgN/A
9:20 am37 °FSunny.14 mph41%29.71 "Hg10 mi
8:50 am36 °FPassing clouds.10 mph44%29.71 "HgN/A
8:20 am36 °FPassing clouds.5 mph41%29.71 "HgN/A
7:50 am34 °FPassing clouds.3 mph48%29.71 "HgN/A
7:20 am32 °FPassing clouds.3 mph51%29.71 "HgN/A
Weather by CustomWeather, © 2017

See weather overviewHow to use our weather pages